SWA6132 KMKE-KSTL

Flight info

Callsign SWA6132
Flight time 0h 54m
Altitude 30000
Route ACCRA5 ACCRA RBS AARCH2
Aircraft B737/M-SDE2E3GIJ4RWZ/LB1D1

Departure

Time 2026-04-21 11:10
Airport General Mitchell International Airport (KMKE)

Arrival

Time 2026-04-21 12:04
Airport St. Louis Lambert International Airport (KSTL)
Time Latitude Longitude Altitude Speed Heading
2026-04-21 11:03 42.94304 -87.88919 678 ft 0 kts 277°
2026-04-21 11:07 42.94307 -87.88937 679 ft 9 kts 286°
2026-04-21 11:08 42.94354 -87.88937 678 ft 9 kts 57°
2026-04-21 11:08 42.94371 -87.88847 675 ft 10 kts 52°
2026-04-21 11:08 42.94433 -87.88797 673 ft 12 kts
2026-04-21 11:08 42.94518 -87.88801 672 ft 11 kts 348°
2026-04-21 11:09 42.94583 -87.88833 671 ft 9 kts 333°
2026-04-21 11:09 42.94601 -87.88909 673 ft 10 kts 252°
2026-04-21 11:09 42.94488 -87.89379 691 ft 99 kts 252°
2026-04-21 11:09 42.94182 -87.90629 831 ft 170 kts 251°
2026-04-21 11:10 42.93770 -87.92323 1504 ft 205 kts 247°
2026-04-21 11:10 42.93033 -87.94052 1974 ft 213 kts 227°
2026-04-21 11:10 42.91775 -87.95088 2304 ft 223 kts 202°
2026-04-21 11:10 42.90128 -87.95180 2746 ft 256 kts 178°
2026-04-21 11:11 42.88351 -87.94322 3300 ft 281 kts 162°
2026-04-21 11:11 42.86569 -87.93086 3954 ft 293 kts 157°
2026-04-21 11:11 42.84808 -87.91638 4542 ft 291 kts 156°
2026-04-21 11:11 42.82938 -87.90833 4830 ft 279 kts 186°
2026-04-21 11:12 42.81064 -87.91082 5327 ft 268 kts 194°
2026-04-21 11:12 42.79172 -87.91376 6010 ft 278 kts 193°
2026-04-21 11:12 42.77235 -87.91659 6602 ft 283 kts 192°
2026-04-21 11:12 42.75271 -87.91930 7101 ft 284 kts 192°
2026-04-21 11:13 42.73283 -87.92205 7490 ft 286 kts 192°
2026-04-21 11:13 42.71343 -87.92479 7879 ft 283 kts 192°
2026-04-21 11:13 42.69367 -87.92733 8399 ft 287 kts 191°
2026-04-21 11:13 42.67372 -87.92969 8946 ft 288 kts 191°
2026-04-21 11:14 42.65370 -87.93214 9492 ft 290 kts 191°
2026-04-21 11:14 42.63346 -87.93463 9941 ft 293 kts 191°
2026-04-21 11:14 42.61310 -87.93719 10270 ft 296 kts 191°
2026-04-21 11:14 42.59214 -87.93987 10629 ft 309 kts 191°
2026-04-21 11:15 42.57028 -87.94266 11033 ft 321 kts 191°
2026-04-21 11:15 42.54761 -87.94558 11393 ft 333 kts 191°
2026-04-21 11:15 42.52420 -87.94862 11767 ft 344 kts 191°
2026-04-21 11:15 42.49996 -87.95177 12154 ft 354 kts 191°
2026-04-21 11:16 42.47518 -87.95461 12545 ft 359 kts 190°
2026-04-21 11:16 42.45012 -87.95719 12939 ft 362 kts 190°
2026-04-21 11:16 42.42526 -87.95995 13319 ft 364 kts 191°
2026-04-21 11:16 42.40000 -87.96307 13696 ft 365 kts 191°
2026-04-21 11:17 42.37461 -87.96611 14042 ft 367 kts 191°
2026-04-21 11:17 42.34910 -87.96911 14416 ft 369 kts 191°
2026-04-21 11:17 42.32339 -87.97215 14780 ft 372 kts 191°
2026-04-21 11:17 42.29752 -87.97529 15149 ft 374 kts 191°
2026-04-21 11:18 42.27153 -87.97844 15545 ft 377 kts 191°
2026-04-21 11:18 42.24521 -87.98159 15897 ft 379 kts 191°
2026-04-21 11:18 42.21886 -87.98483 16260 ft 382 kts 191°
2026-04-21 11:18 42.19231 -87.98812 16611 ft 384 kts 191°
2026-04-21 11:19 42.16558 -87.99140 16964 ft 387 kts 191°
2026-04-21 11:19 42.13867 -87.99470 17310 ft 389 kts 191°
2026-04-21 11:19 42.11197 -87.99798 17647 ft 391 kts 191°
2026-04-21 11:19 42.08477 -88.00140 17990 ft 394 kts 191°
2026-04-21 11:20 42.05734 -88.00483 18330 ft 397 kts 191°
2026-04-21 11:20 42.02974 -88.00826 18634 ft 398 kts 191°
2026-04-21 11:20 42.00206 -88.01169 18966 ft 401 kts 191°
2026-04-21 11:20 41.97414 -88.01512 19302 ft 404 kts 191°
2026-04-21 11:21 41.94610 -88.01847 19632 ft 406 kts 191°
2026-04-21 11:21 41.91777 -88.02119 19961 ft 409 kts 190°
2026-04-21 11:21 41.88925 -88.02442 20294 ft 411 kts 191°
2026-04-21 11:21 41.86064 -88.02783 20613 ft 414 kts 191°
2026-04-21 11:22 41.83179 -88.03126 20942 ft 416 kts 191°
2026-04-21 11:22 41.80292 -88.03462 21255 ft 419 kts 191°
2026-04-21 11:22 41.77381 -88.03800 21594 ft 420 kts 191°
2026-04-21 11:22 41.74454 -88.04140 21905 ft 423 kts 191°
2026-04-21 11:23 41.71513 -88.04455 22216 ft 426 kts 190°
2026-04-21 11:23 41.68547 -88.04729 22529 ft 428 kts 190°
2026-04-21 11:23 41.65564 -88.05000 22848 ft 430 kts 190°
2026-04-21 11:23 41.62584 -88.05299 23345 ft 427 kts 191°
2026-04-21 11:24 41.59650 -88.05625 23914 ft 432 kts 191°
2026-04-21 11:24 41.56638 -88.05963 24431 ft 437 kts 191°
2026-04-21 11:24 41.53581 -88.06307 24950 ft 441 kts 191°
2026-04-21 11:24 41.50511 -88.06651 25473 ft 445 kts 191°
2026-04-21 11:25 41.47410 -88.06999 26005 ft 448 kts 191°
2026-04-21 11:25 41.44294 -88.07347 26548 ft 450 kts 191°
2026-04-21 11:25 41.41167 -88.07693 27102 ft 451 kts 191°
2026-04-21 11:25 41.38034 -88.08037 27665 ft 452 kts 191°
2026-04-21 11:26 41.34899 -88.08387 28240 ft 452 kts 191°
2026-04-21 11:26 41.31767 -88.08733 28826 ft 452 kts 191°
2026-04-21 11:26 41.28621 -88.09075 29428 ft 451 kts 191°
2026-04-21 11:26 41.25494 -88.09410 30037 ft 450 kts 191°
2026-04-21 11:27 41.22381 -88.09746 30095 ft 461 kts 191°
2026-04-21 11:27 41.19149 -88.10110 30113 ft 472 kts 191°
2026-04-21 11:27 41.12482 -88.10768 30123 ft 484 kts 190°
2026-04-21 11:28 41.05783 -88.11410 30126 ft 480 kts 190°
2026-04-21 11:28 40.99134 -88.12051 30131 ft 479 kts 191°
2026-04-21 11:29 40.92490 -88.12821 30129 ft 479 kts 191°
2026-04-21 11:29 40.85849 -88.13590 30132 ft 480 kts 190°
2026-04-21 11:30 40.79181 -88.14248 30129 ft 480 kts 190°
2026-04-21 11:30 40.72521 -88.14897 29946 ft 483 kts 190°
2026-04-21 11:31 40.69164 -88.15225 29445 ft 481 kts 190°
2026-04-21 11:31 40.65896 -88.15555 28959 ft 473 kts 191°
2026-04-21 11:31 40.62638 -88.15931 28496 ft 468 kts 191°
2026-04-21 11:31 40.59409 -88.16388 28001 ft 461 kts 198°
2026-04-21 11:32 40.56473 -88.17822 27362 ft 442 kts 217°
2026-04-21 11:32 40.54009 -88.20098 27008 ft 426 kts 224°
2026-04-21 11:32 40.51682 -88.22489 26677 ft 425 kts 224°
2026-04-21 11:32 40.49356 -88.24897 26290 ft 425 kts 224°
2026-04-21 11:33 40.47040 -88.27290 25877 ft 422 kts 224°
2026-04-21 11:33 40.44715 -88.29627 25459 ft 419 kts 223°
2026-04-21 11:33 40.42402 -88.31932 25051 ft 416 kts 223°
2026-04-21 11:33 40.40105 -88.34222 24646 ft 414 kts 223°
2026-04-21 11:34 40.37847 -88.36475 24439 ft 409 kts 223°
2026-04-21 11:34 40.35572 -88.38727 24243 ft 411 kts 223°
2026-04-21 11:34 40.33274 -88.40952 24035 ft 410 kts 222°
2026-04-21 11:34 40.30981 -88.43166 23832 ft 408 kts 223°
2026-04-21 11:35 40.28701 -88.45375 23743 ft 406 kts 223°
2026-04-21 11:35 40.26429 -88.47579 23644 ft 407 kts 223°
2026-04-21 11:35 40.24155 -88.49783 23536 ft 406 kts 223°
2026-04-21 11:35 40.21893 -88.51984 23423 ft 405 kts 223°
2026-04-21 11:36 40.19635 -88.54185 23312 ft 404 kts 223°
2026-04-21 11:36 40.17379 -88.56384 23202 ft 404 kts 223°
2026-04-21 11:36 40.15130 -88.58583 23089 ft 403 kts 223°
2026-04-21 11:36 40.12885 -88.60788 22981 ft 402 kts 223°
2026-04-21 11:37 40.10648 -88.62985 22865 ft 402 kts 223°
2026-04-21 11:37 40.08440 -88.65156 22651 ft 403 kts 223°
2026-04-21 11:37 40.06212 -88.67357 22376 ft 400 kts 223°
2026-04-21 11:37 40.03995 -88.69529 22097 ft 398 kts 222°
2026-04-21 11:38 40.01764 -88.71667 21840 ft 397 kts 221°
2026-04-21 11:38 39.99538 -88.73801 21580 ft 396 kts 221°
2026-04-21 11:38 39.97325 -88.75927 21323 ft 395 kts 221°
2026-04-21 11:38 39.95122 -88.78057 21068 ft 393 kts 222°
2026-04-21 11:39 39.92932 -88.80181 20816 ft 392 kts 222°
2026-04-21 11:39 39.90750 -88.82305 20567 ft 391 kts 222°
2026-04-21 11:39 39.88575 -88.84425 20321 ft 389 kts 222°
2026-04-21 11:39 39.86414 -88.86534 20074 ft 388 kts 222°
2026-04-21 11:40 39.84252 -88.88638 19830 ft 387 kts 221°
2026-04-21 11:40 39.82083 -88.90696 19586 ft 386 kts 221°
2026-04-21 11:40 39.79913 -88.92747 19340 ft 385 kts 221°
2026-04-21 11:40 39.78482 -88.94104 19189 ft 384 kts 221°
2026-04-21 11:41 39.76329 -88.96153 18953 ft 383 kts 221°
2026-04-21 11:41 39.74184 -88.98202 18715 ft 381 kts 221°
2026-04-21 11:41 39.71360 -89.00902 18402 ft 380 kts 221°
2026-04-21 11:41 39.69240 -89.02938 18126 ft 378 kts 221°
2026-04-21 11:42 39.67134 -89.04970 17854 ft 376 kts 221°
2026-04-21 11:42 39.65716 -89.06342 17678 ft 375 kts 221°
2026-04-21 11:42 39.63630 -89.08371 17412 ft 374 kts 221°
2026-04-21 11:42 39.61567 -89.10349 17146 ft 373 kts 220°
2026-04-21 11:43 39.59469 -89.12329 16900 ft 372 kts 220°
2026-04-21 11:43 39.57381 -89.14308 16646 ft 370 kts 220°
2026-04-21 11:43 39.55309 -89.16284 16390 ft 369 kts 220°
2026-04-21 11:43 39.53248 -89.18261 16132 ft 368 kts 220°
2026-04-21 11:44 39.51201 -89.20234 15890 ft 366 kts 220°
2026-04-21 11:44 39.49146 -89.22188 15639 ft 365 kts 219°
2026-04-21 11:44 39.47087 -89.24119 15395 ft 365 kts 219°
2026-04-21 11:44 39.45042 -89.26049 15143 ft 364 kts 219°
2026-04-21 11:45 39.42999 -89.27992 14789 ft 364 kts 219°
2026-04-21 11:45 39.40991 -89.29916 14398 ft 363 kts 219°
2026-04-21 11:45 39.38956 -89.31856 13965 ft 363 kts 218°
2026-04-21 11:45 39.36914 -89.33775 13489 ft 361 kts 218°
2026-04-21 11:46 39.34903 -89.35676 13010 ft 354 kts 218°
2026-04-21 11:46 39.32938 -89.37535 12547 ft 346 kts 218°
2026-04-21 11:46 39.31015 -89.39356 12086 ft 339 kts 218°
2026-04-21 11:46 39.29131 -89.41144 11623 ft 332 kts 218°
2026-04-21 11:47 39.27288 -89.42900 11186 ft 326 kts 218°
2026-04-21 11:47 39.25463 -89.44606 10749 ft 321 kts 217°
2026-04-21 11:47 39.23657 -89.46268 10317 ft 316 kts 217°
2026-04-21 11:47 39.21884 -89.47912 9871 ft 311 kts 217°
2026-04-21 11:48 39.20169 -89.49507 9393 ft 298 kts 217°
2026-04-21 11:48 39.18528 -89.51026 9042 ft 283 kts 217°
2026-04-21 11:48 39.16967 -89.52463 8716 ft 269 kts 217°
2026-04-21 11:48 39.15473 -89.53838 8385 ft 258 kts 218°
2026-04-21 11:49 39.14050 -89.55188 8052 ft 249 kts 218°
2026-04-21 11:49 39.12680 -89.56487 7726 ft 241 kts 218°
2026-04-21 11:49 39.11345 -89.57747 7407 ft 236 kts 218°
2026-04-21 11:49 39.10042 -89.58977 7095 ft 235 kts 218°
2026-04-21 11:50 39.08738 -89.60210 6979 ft 228 kts 218°
2026-04-21 11:50 39.07462 -89.61410 7046 ft 225 kts 218°
2026-04-21 11:50 39.06171 -89.62627 7053 ft 239 kts 218°
2026-04-21 11:50 39.04820 -89.63907 6987 ft 241 kts 218°
2026-04-21 11:51 39.03483 -89.65177 6983 ft 235 kts 218°
2026-04-21 11:51 39.02178 -89.66412 7006 ft 231 kts 218°
2026-04-21 11:51 39.00879 -89.67638 7015 ft 233 kts 218°
2026-04-21 11:51 38.99556 -89.68880 7014 ft 237 kts 218°
2026-04-21 11:52 38.98210 -89.70108 7010 ft 237 kts 218°
2026-04-21 11:52 38.96866 -89.71339 7005 ft 236 kts 218°
2026-04-21 11:52 38.95532 -89.72560 7012 ft 235 kts 218°
2026-04-21 11:52 38.94196 -89.73779 7018 ft 235 kts 217°
2026-04-21 11:53 38.92861 -89.75004 7015 ft 236 kts 218°
2026-04-21 11:53 38.91525 -89.76235 7018 ft 236 kts 218°
2026-04-21 11:53 38.90194 -89.77460 7022 ft 235 kts 218°
2026-04-21 11:53 38.88880 -89.78675 7020 ft 236 kts 218°
2026-04-21 11:54 38.87533 -89.79920 7025 ft 236 kts 218°
2026-04-21 11:54 38.86215 -89.81139 7025 ft 236 kts 218°
2026-04-21 11:54 38.84881 -89.82372 7021 ft 236 kts 218°
2026-04-21 11:54 38.83545 -89.83609 7022 ft 236 kts 218°
2026-04-21 11:55 38.82218 -89.84839 7026 ft 236 kts 218°
2026-04-21 11:55 38.80888 -89.86074 7022 ft 236 kts 218°
2026-04-21 11:55 38.79556 -89.87313 7029 ft 237 kts 218°
2026-04-21 11:55 38.78223 -89.88552 7019 ft 236 kts 218°
2026-04-21 11:56 38.76896 -89.89791 7025 ft 236 kts 218°
2026-04-21 11:56 38.75588 -89.91011 7028 ft 235 kts 218°
2026-04-21 11:56 38.74262 -89.92246 7028 ft 236 kts 218°
2026-04-21 11:56 38.72919 -89.93501 7026 ft 237 kts 219°
2026-04-21 11:57 38.71821 -89.95066 6567 ft 250 kts 243°
2026-04-21 11:57 38.71169 -89.97153 6201 ft 250 kts 248°
2026-04-21 11:57 38.70556 -89.99186 6060 ft 240 kts 248°
2026-04-21 11:57 38.69955 -90.01151 5844 ft 234 kts 248°
2026-04-21 11:58 38.69365 -90.03073 5600 ft 230 kts 248°
2026-04-21 11:58 38.68785 -90.04935 5588 ft 219 kts 248°
2026-04-21 11:58 38.68250 -90.06730 5646 ft 215 kts 248°
2026-04-21 11:58 38.67586 -90.08493 5584 ft 227 kts 242°
2026-04-21 11:59 38.66844 -90.10323 5351 ft 235 kts 243°
2026-04-21 11:59 38.66095 -90.12178 5041 ft 232 kts 243°
2026-04-21 11:59 38.65391 -90.13912 4738 ft 217 kts 245°
2026-04-21 11:59 38.65139 -90.15779 4178 ft 214 kts 277°
2026-04-21 12:00 38.65664 -90.17519 3783 ft 194 kts 288°
2026-04-21 12:00 38.66168 -90.19035 3564 ft 182 kts 285°
2026-04-21 12:00 38.66661 -90.20590 3298 ft 197 kts 286°
2026-04-21 12:00 38.67176 -90.22242 2987 ft 199 kts 286°
2026-04-21 12:01 38.67691 -90.23885 2694 ft 199 kts 286°
2026-04-21 12:01 38.68292 -90.25489 2378 ft 203 kts 294°
2026-04-21 12:01 38.69061 -90.26994 2285 ft 202 kts 295°
2026-04-21 12:01 38.69812 -90.28506 2252 ft 203 kts 295°
2026-04-21 12:02 38.70564 -90.29998 2172 ft 188 kts 295°
2026-04-21 12:02 38.71872 -90.32643 1616 ft 174 kts 293°
2026-04-21 12:02 38.72490 -90.34004 1219 ft 181 kts 296°
2026-04-21 12:03 38.73148 -90.35397 945 ft 184 kts 302°
2026-04-21 12:03 38.73869 -90.36758 695 ft 184 kts 303°
2026-04-21 12:03 38.74542 -90.38043 581 ft 160 kts 301°
2026-04-21 12:03 38.75071 -90.39136 580 ft 129 kts 302°
2026-04-21 12:04 38.75377 -90.39739 595 ft 62 kts 303°
2026-04-21 12:04 38.75565 -90.40066 603 ft 34 kts 316°
2026-04-21 12:04 38.75756 -90.40172 605 ft 26 kts 27°
2026-04-21 12:04 38.75734 -90.40002 602 ft 22 kts 123°
2026-04-21 12:05 38.75648 -90.39835 602 ft 22 kts 123°
2026-04-21 12:05 38.75566 -90.39670 597 ft 22 kts 122°
2026-04-21 12:05 38.75486 -90.39510 593 ft 21 kts 123°
2026-04-21 12:05 38.75411 -90.39353 586 ft 20 kts 121°
2026-04-21 12:06 38.75337 -90.39201 583 ft 20 kts 122°
2026-04-21 12:06 38.75266 -90.39054 580 ft 19 kts 122°
2026-04-21 12:06 38.75196 -90.38913 580 ft 18 kts 123°
2026-04-21 12:06 38.75128 -90.38777 580 ft 18 kts 122°
2026-04-21 12:07 38.75062 -90.38645 577 ft 17 kts 124°
2026-04-21 12:07 38.74995 -90.38518 576 ft 18 kts 123°
2026-04-21 12:07 38.74928 -90.38384 570 ft 18 kts 122°
2026-04-21 12:07 38.74863 -90.38253 567 ft 18 kts 123°
2026-04-21 12:08 38.74796 -90.38110 564 ft 19 kts 114°
2026-04-21 12:08 38.74743 -90.37962 561 ft 18 kts 115°
2026-04-21 12:08 38.74694 -90.37819 558 ft 17 kts 107°
2026-04-21 12:08 38.74726 -90.37676 559 ft 17 kts 63°
2026-04-21 12:09 38.74777 -90.37546 560 ft 16 kts 63°
2026-04-21 12:09 38.74826 -90.37421 556 ft 15 kts 63°
2026-04-21 12:09 38.74866 -90.37298 555 ft 15 kts 98°
2026-04-21 12:09 38.74817 -90.37185 559 ft 14 kts 123°
2026-04-21 12:10 38.74763 -90.37083 557 ft 14 kts 124°
2026-04-21 12:10 38.74699 -90.37007 557 ft 13 kts 166°
2026-04-21 12:10 38.74631 -90.36942 556 ft 13 kts 120°
2026-04-21 12:10 38.74587 -90.36914 556 ft 7 kts 182°
2026-04-21 12:11 38.74548 -90.36900 557 ft 0 kts 156°